TimeCST,TemperatureF,Dew PointF,Humidity,Sea Level PressureIn,VisibilityMPH,Wind Direction,Wind SpeedMPH,Gust SpeedMPH,PrecipitationIn,Events,Conditions,WindDirDegrees,DateUTC
12:52 AM,1.0,-4.0,79,30.35,10.0,Calm,Calm,-,N/A,,Mostly Cloudy,0,2013-01-22 06:52:00
1:52 AM,-0.0,-5.1,79,30.34,10.0,East,3.5,-,N/A,,Clear,100,2013-01-22 07:52:00
2:52 AM,1.0,-5.1,75,30.35,10.0,Calm,Calm,-,N/A,,Mostly Cloudy,0,2013-01-22 08:52:00
3:52 AM,1.0,-4.0,79,30.33,10.0,Calm,Calm,-,N/A,,Overcast,0,2013-01-22 09:52:00
4:52 AM,1.9,-4.0,76,30.31,10.0,Calm,Calm,-,N/A,,Overcast,0,2013-01-22 10:52:00
5:52 AM,1.9,-4.0,76,30.30,10.0,ENE,3.5,-,N/A,,Overcast,70,2013-01-22 11:52:00
6:52 AM,3.0,-2.0,80,30.29,10.0,Calm,Calm,-,N/A,,Overcast,0,2013-01-22 12:52:00
7:17 AM,3.2,-2.2,78,30.12,10.0,Calm,Calm,-,N/A,,Overcast,0,2013-01-22 13:17:00
7:52 AM,3.9,-0.9,80,30.27,10.0,South,3.5,-,N/A,,Overcast,170,2013-01-22 13:52:00
8:47 AM,3.2,-0.4,85,30.10,5.0,South,4.6,-,0.00,Snow,Light Snow,170,2013-01-22 14:47:00
8:52 AM,3.9,-0.0,84,30.26,6.0,South,3.5,-,0.00,Snow,Light Snow,170,2013-01-22 14:52:00
9:18 AM,5.0,1.4,85,30.11,2.5,SSE,3.5,-,0.00,Snow,Light Snow,160,2013-01-22 15:18:00
9:26 AM,5.0,1.4,85,30.11,3.0,SSE,3.5,-,0.00,Snow,Light Snow,160,2013-01-22 15:26:00
9:38 AM,5.0,1.4,85,30.11,2.5,SSE,3.5,-,0.00,Snow,Light Snow,150,2013-01-22 15:38:00
9:52 AM,5.0,1.9,87,30.27,2.5,Calm,Calm,-,0.00,Snow,Light Snow,0,2013-01-22 15:52:00
10:00 AM,5.0,1.4,85,30.11,1.8,South,3.5,-,0.00,Snow,Light Snow,170,2013-01-22 16:00:00
10:17 AM,6.8,1.4,79,30.11,2.5,Calm,Calm,-,0.01,Snow,Light Snow,0,2013-01-22 16:17:00
10:28 AM,6.8,3.2,85,30.11,1.8,SSW,3.5,-,0.01,Snow,Light Snow,200,2013-01-22 16:28:00
10:30 AM,6.8,3.2,85,30.10,2.0,Calm,Calm,-,0.01,Snow,Light Snow,0,2013-01-22 16:30:00
10:52 AM,7.0,3.0,84,30.26,2.0,Calm,Calm,-,0.01,Snow,Light Snow,0,2013-01-22 16:52:00
11:10 AM,6.8,3.2,85,30.10,4.0,Calm,Calm,-,0.01,Snow,Light Snow,0,2013-01-22 17:10:00
11:34 AM,8.6,5.0,85,30.10,2.0,South,3.5,-,0.01,Snow,Light Snow,180,2013-01-22 17:34:00
11:52 AM,9.0,5.0,84,30.25,4.0,South,3.5,-,0.01,Snow,Light Snow,180,2013-01-22 17:52:00
12:13 PM,8.6,6.8,92,30.09,2.5,Calm,Calm,-,0.00,Snow,Light Snow,0,2013-01-22 18:13:00
12:27 PM,10.4,6.8,85,30.08,3.0,South,3.5,-,0.00,Snow,Light Snow,190,2013-01-22 18:27:00
12:52 PM,10.9,7.0,84,30.22,9.0,Variable,3.5,-,0.01,,Overcast,0,2013-01-22 18:52:00
1:52 PM,12.0,8.1,84,30.21,9.0,SW,5.8,-,0.00,,Overcast,220,2013-01-22 19:52:00
2:52 PM,12.9,8.1,81,30.21,10.0,West,6.9,-,0.00,,Overcast,260,2013-01-22 20:52:00
3:52 PM,14.0,9.0,80,30.22,10.0,WNW,9.2,-,0.00,,Overcast,290,2013-01-22 21:52:00
4:52 PM,12.9,8.1,81,30.21,10.0,WNW,6.9,-,N/A,,Overcast,300,2013-01-22 22:52:00
5:52 PM,12.9,8.1,81,30.22,10.0,NW,4.6,-,N/A,,Scattered Clouds,310,2013-01-22 23:52:00
6:52 PM,12.9,9.0,84,30.23,10.0,WNW,3.5,-,N/A,,Scattered Clouds,290,2013-01-23 00:52:00
7:52 PM,12.9,9.0,84,30.25,10.0,NW,5.8,-,N/A,,Overcast,310,2013-01-23 01:52:00
8:52 PM,12.9,8.1,81,30.26,10.0,North,9.2,-,0.00,,Scattered Clouds,350,2013-01-23 02:52:00
9:52 PM,10.0,6.1,84,30.28,10.0,North,5.8,-,N/A,,Mostly Cloudy,350,2013-01-23 03:52:00
10:52 PM,8.1,3.9,83,30.31,10.0,North,6.9,-,N/A,,Partly Cloudy,350,2013-01-23 04:52:00
11:52 PM,7.0,1.9,80,30.33,10.0,North,12.7,-,N/A,,Clear,350,2013-01-23 05:52:00